• In Lithuania
  • List of Countries
  • For 7 days
  • Water Temperature
  • Satellite Maps
  • Weather Map
  • Weather Widgets
  • user-avatar
    Login

    Hourly Weather Samos

    Today, 20 June, Wednesday

    Time Temperature Precipitation Wind Pressure Humidity
    00:00 +21°C° 0.2 mm 3 mps 718 mmHg 78%
    01:00 +20°C° 0.2 mm 3 mps 718 mmHg 79%
    02:00 +20°C° 0 mm 3 mps 718 mmHg 79%
    03:00 +20°C° 0 mm 3 mps 718 mmHg 80%
    04:00 +19°C° 0 mm 3 mps 718 mmHg 81%
    05:00 +19°C° 0 mm 3 mps 718 mmHg 82%
    06:00 +20°C° 0 mm 3 mps 719 mmHg 76%
    07:00 +22°C° 0 mm 3 mps 719 mmHg 69%
    08:00 +25°C° 0 mm 2 mps 719 mmHg 63%
    09:00 +26°C° 0 mm 2 mps 719 mmHg 57%
    10:00 +27°C° 0 mm 2 mps 720 mmHg 52%
    11:00 +29°C° 0 mm 1 mps 720 mmHg 47%
    12:00 +29°C° 0.1 mm 2 mps 720 mmHg 47%
    13:00 +29°C° 0.1 mm 2 mps 720 mmHg 47%
    14:00 +29°C° 0.1 mm 2 mps 720 mmHg 47%
    15:00 +28°C° 0.2 mm 2 mps 720 mmHg 49%
    16:00 +27°C° 0.2 mm 3 mps 720 mmHg 52%
    17:00 +27°C° 0.2 mm 3 mps 720 mmHg 55%
    18:00 +26°C° 0.1 mm 2 mps 720 mmHg 60%
    19:00 +25°C° 0.1 mm 2 mps 720 mmHg 65%
    20:00 +24°C° 0.1 mm 2 mps 720 mmHg 70%
    21:00 +23°C° 0 mm 2 mps 720 mmHg 72%
    22:00 +23°C° 0 mm 1 mps 720 mmHg 74%
    23:00 +22°C° 0 mm 1 mps 720 mmHg 76%

    Tomorrow, 21 June, Thursday

    Time Temperature Precipitation Wind Pressure Humidity
    00:00 +22°C° 0 mm 1 mps 720 mmHg 79%
    01:00 +21°C° 0 mm 1 mps 720 mmHg 81%
    02:00 +21°C° 0 mm 1 mps 720 mmHg 83%
    03:00 +21°C° 0.1 mm 1 mps 720 mmHg 84%
    04:00 +20°C° 0.1 mm 1 mps 720 mmHg 85%
    05:00 +20°C° 0.1 mm 1 mps 720 mmHg 87%
    06:00 +22°C° 0 mm 1 mps 720 mmHg 80%
    07:00 +23°C° 0 mm 1 mps 720 mmHg 72%
    08:00 +25°C° 0 mm 1 mps 720 mmHg 65%
    09:00 +26°C° 0.1 mm 2 mps 720 mmHg 60%
    10:00 +27°C° 0.1 mm 2 mps 720 mmHg 55%
    11:00 +28°C° 0.1 mm 3 mps 720 mmHg 51%
    12:00 +28°C° 0.1 mm 3 mps 720 mmHg 50%
    13:00 +28°C° 0.1 mm 3 mps 720 mmHg 50%
    14:00 +28°C° 0.1 mm 4 mps 720 mmHg 49%
    15:00 +28°C° 0 mm 4 mps 720 mmHg 51%
    16:00 +27°C° 0 mm 3 mps 719 mmHg 53%
    17:00 +27°C° 0 mm 3 mps 719 mmHg 54%
    18:00 +25°C° 0.1 mm 3 mps 719 mmHg 61%
    19:00 +24°C° 0.1 mm 3 mps 719 mmHg 67%
    20:00 +22°C° 0.1 mm 3 mps 719 mmHg 73%
    21:00 +21°C° 0 mm 3 mps 719 mmHg 77%
    22:00 +21°C° 0 mm 3 mps 720 mmHg 80%
    23:00 +20°C° 0 mm 3 mps 720 mmHg 83%

    Day after tomorrow, 22 June, Friday

    Time Temperature Precipitation Wind Pressure Humidity
    00:00 +20°C° 0 mm 3 mps 719 mmHg 85%
    01:00 +19°C° 0 mm 3 mps 719 mmHg 87%
    02:00 +19°C° 0 mm 3 mps 719 mmHg 89%
    03:00 +19°C° 0 mm 3 mps 719 mmHg 89%
    04:00 +19°C° 0 mm 3 mps 719 mmHg 90%
    05:00 +18°C° 0 mm 3 mps 718 mmHg 90%
    06:00 +20°C° 0 mm 2 mps 719 mmHg 81%
    07:00 +23°C° 0 mm 2 mps 719 mmHg 72%
    08:00 +24°C° 0 mm 2 mps 719 mmHg 63%
    09:00 +26°C° 0 mm 2 mps 719 mmHg 58%
    10:00 +27°C° 0 mm 2 mps 719 mmHg 52%
    11:00 +28°C° 0 mm 3 mps 719 mmHg 46%
    12:00 +28°C° 0 mm 3 mps 719 mmHg 46%
    13:00 +28°C° 0 mm 4 mps 719 mmHg 45%
    14:00 +28°C° 0 mm 4 mps 719 mmHg 45%
    15:00 +28°C° 0 mm 4 mps 718 mmHg 44%
    16:00 +28°C° 0 mm 4 mps 718 mmHg 44%
    17:00 +28°C° 0 mm 4 mps 718 mmHg 44%
    18:00 +26°C° 0 mm 3 mps 718 mmHg 48%
    19:00 +25°C° 0 mm 3 mps 718 mmHg 53%
    20:00 +23°C° 0 mm 2 mps 718 mmHg 57%
    21:00 +23°C° 0 mm 2 mps 718 mmHg 59%
    22:00 +21°C° 0 mm 2 mps 718 mmHg 61%
    23:00 +21°C° 0 mm 1 mps 718 mmHg 62%

    23 June, Saturday

    Time Temperature Precipitation Wind Pressure Humidity
    00:00 +21°C° 0 mm 1 mps 718 mmHg 63%
    01:00 +21°C° 0 mm 1 mps 718 mmHg 63%
    02:00 +20°C° 0 mm 1 mps 718 mmHg 63%
    03:00 +20°C° 0 mm 1 mps 718 mmHg 63%
    04:00 +19°C° 0 mm 2 mps 718 mmHg 63%
    05:00 +19°C° 0 mm 2 mps 718 mmHg 63%
    06:00 +21°C° 0 mm 2 mps 718 mmHg 57%
    07:00 +24°C° 0 mm 2 mps 718 mmHg 51%
    08:00 +26°C° 0 mm 2 mps 718 mmHg 45%
    09:00 +27°C° 0 mm 2 mps 718 mmHg 40%
    10:00 +29°C° 0 mm 2 mps 719 mmHg 36%
    11:00 +30°C° 0 mm 3 mps 719 mmHg 32%
    12:00 +31°C° 0 mm 3 mps 719 mmHg 30%
    13:00 +33°C° 0 mm 4 mps 718 mmHg 28%
    14:00 +34°C° 0 mm 5 mps 718 mmHg 26%
    15:00 +33°C° 0 mm 5 mps 718 mmHg 28%
    16:00 +33°C° 0 mm 5 mps 718 mmHg 29%
    17:00 +32°C° 0 mm 6 mps 718 mmHg 31%
    18:00 +29°C° 0 mm 6 mps 718 mmHg 39%
    19:00 +27°C° 0 mm 5 mps 718 mmHg 47%
    20:00 +25°C° 0 mm 5 mps 718 mmHg 55%
    21:00 +23°C° 0 mm 5 mps 718 mmHg 59%
    22:00 +23°C° 0 mm 5 mps 718 mmHg 63%
    23:00 +22°C° 0 mm 5 mps 718 mmHg 67%

    24 June, Sunday

    Time Temperature Precipitation Wind Pressure Humidity
    00:00 +21°C° 0 mm 5 mps 718 mmHg 70%
    01:00 +21°C° 0 mm 4 mps 718 mmHg 72%
    02:00 +20°C° 0 mm 4 mps 718 mmHg 75%
    03:00 +20°C° 0 mm 5 mps 718 mmHg 76%
    04:00 +19°C° 0 mm 5 mps 717 mmHg 78%
    05:00 +19°C° 0 mm 5 mps 717 mmHg 79%
    06:00 +21°C° 0 mm 5 mps 717 mmHg 73%
    07:00 +22°C° 0 mm 5 mps 718 mmHg 66%
    08:00 +25°C° 0 mm 5 mps 718 mmHg 59%
    09:00 +27°C° 0 mm 5 mps 718 mmHg 53%
    10:00 +29°C° 0 mm 4 mps 718 mmHg 46%
    11:00 +32°C° 0 mm 4 mps 718 mmHg 40%
    12:00 +33°C° 0 mm 5 mps 718 mmHg 38%
    13:00 +33°C° 0 mm 5 mps 718 mmHg 35%
    14:00 +34°C° 0 mm 5 mps 718 mmHg 33%
    15:00 +33°C° 0 mm 6 mps 718 mmHg 36%
    16:00 +33°C° 0 mm 6 mps 718 mmHg 39%
    17:00 +32°C° 0 mm 6 mps 718 mmHg 41%
    18:00 +29°C° 0 mm 6 mps 718 mmHg 47%
    19:00 +28°C° 0 mm 5 mps 718 mmHg 53%
    20:00 +26°C° 0 mm 5 mps 718 mmHg 59%
    21:00 +25°C° 0 mm 5 mps 718 mmHg 62%
    22:00 +23°C° 0 mm 4 mps 718 mmHg 65%
    23:00 +23°C° 0 mm 4 mps 718 mmHg 68%

    25 June, Monday

    Time Temperature Precipitation Wind Pressure Humidity
    00:00 +22°C° 0 mm 4 mps 718 mmHg 70%
    01:00 +22°C° 0 mm 4 mps 718 mmHg 71%
    02:00 +21°C° 0 mm 4 mps 717 mmHg 72%
    03:00 +21°C° 0 mm 4 mps 717 mmHg 73%
    04:00 +20°C° 0 mm 4 mps 717 mmHg 74%
    05:00 +20°C° 0 mm 4 mps 717 mmHg 75%
    06:00 +22°C° 0 mm 4 mps 717 mmHg 68%
    07:00 +23°C° 0 mm 4 mps 717 mmHg 62%
    08:00 +26°C° 0 mm 4 mps 717 mmHg 55%
    09:00 +28°C° 0 mm 4 mps 717 mmHg 50%
    10:00 +30°C° 0 mm 4 mps 718 mmHg 45%
    11:00 +33°C° 0 mm 4 mps 718 mmHg 39%
    12:00 +33°C° 0 mm 4 mps 717 mmHg 38%
    13:00 +34°C° 0 mm 4 mps 717 mmHg 37%
    14:00 +34°C° 0 mm 5 mps 717 mmHg 36%
    15:00 +33°C° 0 mm 5 mps 717 mmHg 38%
    16:00 +33°C° 0 mm 5 mps 717 mmHg 40%
    17:00 +32°C° 0 mm 5 mps 717 mmHg 43%
    18:00 +29°C° 0 mm 4 mps 717 mmHg 50%
    19:00 +27°C° 0 mm 3 mps 717 mmHg 57%
    20:00 +25°C° 0 mm 3 mps 717 mmHg 65%
    21:00 +25°C° 0.1 mm 3 mps 717 mmHg 69%
    22:00 +24°C° 0.1 mm 2 mps 717 mmHg 73%
    23:00 +23°C° 0.1 mm 2 mps 717 mmHg 77%
    Show more